User: anonymous   Login
Location: Ellingshausen
(50.5460°N, 10.4723°E)
Time: 04:11:23
(UTC+00:00)
Language:

Cosmos 1959 Rocket - Orbit

View from above orbital plane
View from above orbital plane
View from above satellite
View from above satellite

Ground track
Ground track

The orbit is defined by the following mean orbital elements,

1 19325U          26071.73618766 +.00000000 +00000-0 +73668-4 0 00007
2 19325  82.9548 171.2076 0032307 294.2472 230.2371 13.77909593    08
Epoch (UTC): 12 March 2026 17:40:06
Eccentricity: 0.0032307
inclination: 82.9548°
perigee height: 948 km
apogee height: 995 km
right ascension of ascending node: 171.2076°
argument of perigee: 294.2472°
revolutions per day: 13.77909593
mean anomaly at epoch: 230.2371°

The dashed part of the orbit path shows where the satellite is in the earth's shadow,  

DLR